Time,TemperatureF,DewpointF,PressureIn,WindDirection,WindDirectionDegrees,WindSpeedMPH,WindSpeedGustMPH,Humidity,HourlyPrecipIn,Conditions,Clouds,dailyrainin,SolarRadiationWatts/m^2,SoftwareType,DateUTC
2013-01-07 00:05:00,24.5,21.5,30.39,SSW,205,0.0,0.0,88,0.00,,,0.00,0,Wunderground v.1.15,2013-01-07 06:05:00,
2013-01-07 00:10:00,24.7,21.9,30.39,SSW,205,0.0,0.0,89,0.00,,,0.00,0,Wunderground v.1.15,2013-01-07 06:10:00,
2013-01-07 00:15:00,24.8,22.0,30.39,SSW,205,0.0,0.0,89,0.00,,,0.00,0,Wunderground v.1.15,2013-01-07 06:15:00,
2013-01-07 00:20:00,24.6,21.8,30.38,SSW,205,0.0,0.0,89,0.00,,,0.00,0,Wunderground v.1.15,2013-01-07 06:20:00,
2013-01-07 00:25:00,24.4,21.6,30.38,SSW,205,0.0,0.0,89,0.00,,,0.00,0,Wunderground v.1.15,2013-01-07 06:25:00,
2013-01-07 00:35:00,24.6,21.8,30.38,SSW,205,0.0,0.0,89,0.00,,,0.00,0,Wunderground v.1.15,2013-01-07 06:35:00,
2013-01-07 00:45:00,24.5,21.5,30.38,SSW,205,0.0,0.0,88,0.00,,,0.00,0,Wunderground v.1.15,2013-01-07 06:45:00,
2013-01-07 00:50:00,24.4,21.6,30.39,SSW,205,0.0,0.0,89,0.00,,,0.00,0,Wunderground v.1.15,2013-01-07 06:50:00,
2013-01-07 00:55:00,24.3,21.5,30.38,SSW,205,0.0,0.0,89,0.00,,,0.00,0,Wunderground v.1.15,2013-01-07 06:55:00,
2013-01-07 01:00:00,24.3,21.5,30.38,SSW,205,0.0,0.0,89,0.00,,,0.00,0,Wunderground v.1.15,2013-01-07 07:00:00,
2013-01-07 01:10:00,24.4,21.6,30.38,SSW,205,0.0,0.0,89,0.00,,,0.00,0,Wunderground v.1.15,2013-01-07 07:10:00,
2013-01-07 01:15:00,24.4,21.4,30.38,SSW,203,0.0,0.0,88,0.00,,,0.00,0,Wunderground v.1.15,2013-01-07 07:15:00,
2013-01-07 01:20:00,24.5,21.5,30.38,South,185,0.0,0.0,88,0.00,,,0.00,0,Wunderground v.1.15,2013-01-07 07:20:00,
2013-01-07 01:25:00,24.5,21.2,30.38,South,181,0.0,0.0,87,0.00,,,0.00,0,Wunderground v.1.15,2013-01-07 07:25:00,
2013-01-07 01:35:00,24.6,21.0,30.38,South,180,0.0,0.0,86,0.00,,,0.00,0,Wunderground v.1.15,2013-01-07 07:35:00,
2013-01-07 01:40:00,24.4,20.8,30.38,South,181,0.0,0.0,86,0.00,,,0.00,0,Wunderground v.1.15,2013-01-07 07:40:00,
2013-01-07 01:45:00,24.4,21.1,30.38,South,180,0.0,0.0,87,0.00,,,0.00,0,Wunderground v.1.15,2013-01-07 07:45:00,
2013-01-07 01:50:00,24.1,20.8,30.38,South,180,0.0,0.0,87,0.00,,,0.00,0,Wunderground v.1.15,2013-01-07 07:50:00,
2013-01-07 02:00:00,24.7,20.8,30.38,South,181,0.0,0.0,85,0.00,,,0.00,0,Wunderground v.1.15,2013-01-07 08:00:00,
2013-01-07 02:05:00,25.0,20.6,30.39,South,181,0.0,0.0,83,0.00,,,0.00,0,Wunderground v.1.15,2013-01-07 08:05:00,
2013-01-07 02:10:00,25.0,20.6,30.39,South,181,0.0,0.0,83,0.00,,,0.00,0,Wunderground v.1.15,2013-01-07 08:10:00,
2013-01-07 02:20:00,24.9,20.5,30.39,South,186,0.0,0.0,83,0.00,,,0.00,0,Wunderground v.1.15,2013-01-07 08:20:00,
2013-01-07 02:25:00,24.8,20.4,30.39,South,186,0.0,1.0,83,0.00,,,0.00,0,Wunderground v.1.15,2013-01-07 08:25:00,
2013-01-07 02:35:00,24.9,20.2,30.40,South,186,0.0,0.0,82,0.00,,,0.00,0,Wunderground v.1.15,2013-01-07 08:35:00,
2013-01-07 02:45:00,24.6,20.2,30.40,South,186,0.0,0.0,83,0.00,,,0.00,0,Wunderground v.1.15,2013-01-07 08:45:00,
2013-01-07 02:50:00,24.4,20.0,30.39,South,186,0.0,0.0,83,0.00,,,0.00,0,Wunderground v.1.15,2013-01-07 08:50:00,
2013-01-07 03:00:00,23.7,19.6,30.39,South,186,0.0,0.0,84,0.00,,,0.00,0,Wunderground v.1.15,2013-01-07 09:00:00,
2013-01-07 03:05:00,23.6,19.5,30.39,South,186,0.0,0.0,84,0.00,,,0.00,0,Wunderground v.1.15,2013-01-07 09:05:00,
2013-01-07 03:15:00,23.4,19.8,30.40,South,186,0.0,0.0,86,0.00,,,0.00,0,Wunderground v.1.15,2013-01-07 09:15:00,
2013-01-07 03:20:00,23.5,20.5,30.39,South,186,0.0,0.0,88,0.00,,,0.00,0,Wunderground v.1.15,2013-01-07 09:20:00,
2013-01-07 03:25:00,23.3,20.3,30.40,South,186,0.0,0.0,88,0.00,,,0.00,0,Wunderground v.1.15,2013-01-07 09:25:00,
2013-01-07 03:30:00,23.3,20.5,30.40,South,185,0.0,0.0,89,0.00,,,0.00,0,Wunderground v.1.15,2013-01-07 09:30:00,
2013-01-07 03:40:00,23.0,20.2,30.39,South,185,0.0,0.0,89,0.00,,,0.00,0,Wunderground v.1.15,2013-01-07 09:40:00,
2013-01-07 03:50:00,23.6,20.8,30.39,South,171,0.0,1.0,89,0.00,,,0.00,0,Wunderground v.1.15,2013-01-07 09:50:00,
2013-01-07 03:55:00,23.8,20.8,30.39,ESE,119,1.0,2.0,88,0.00,,,0.00,0,Wunderground v.1.15,2013-01-07 09:55:00,
2013-01-07 04:00:00,23.9,20.6,30.39,ESE,118,1.0,1.0,87,0.00,,,0.00,0,Wunderground v.1.15,2013-01-07 10:00:00,
2013-01-07 04:10:00,24.2,20.6,30.39,ESE,118,0.0,0.0,86,0.00,,,0.00,0,Wunderground v.1.15,2013-01-07 10:10:00,
2013-01-07 04:15:00,24.2,20.3,30.39,ESE,118,0.0,0.0,85,0.00,,,0.00,0,Wunderground v.1.15,2013-01-07 10:15:00,
2013-01-07 04:20:00,24.2,20.3,30.39,ESE,118,0.0,0.0,85,0.00,,,0.00,0,Wunderground v.1.15,2013-01-07 10:20:00,
2013-01-07 04:30:00,24.5,20.4,30.39,SE,129,2.0,2.0,84,0.00,,,0.00,0,Wunderground v.1.15,2013-01-07 10:30:00,
2013-01-07 04:40:00,24.3,20.2,30.38,SE,129,1.0,1.0,84,0.00,,,0.00,0,Wunderground v.1.15,2013-01-07 10:40:00,
2013-01-07 04:45:00,24.1,20.2,30.38,SE,129,0.0,1.0,85,0.00,,,0.00,0,Wunderground v.1.15,2013-01-07 10:45:00,
2013-01-07 04:55:00,24.2,20.3,30.37,SE,129,0.0,0.0,85,0.00,,,0.00,0,Wunderground v.1.15,2013-01-07 10:55:00,
2013-01-07 05:05:00,24.0,20.4,30.37,SE,129,0.0,0.0,86,0.00,,,0.00,0,Wunderground v.1.15,2013-01-07 11:05:00,
2013-01-07 05:10:00,24.0,20.1,30.37,SE,129,0.0,0.0,85,0.00,,,0.00,0,Wunderground v.1.15,2013-01-07 11:10:00,
2013-01-07 05:15:00,23.9,20.0,30.37,SE,129,0.0,0.0,85,0.00,,,0.00,0,Wunderground v.1.15,2013-01-07 11:15:00,
2013-01-07 05:25:00,23.7,20.4,30.37,SE,129,0.0,0.0,87,0.00,,,0.00,0,Wunderground v.1.15,2013-01-07 11:25:00,
2013-01-07 05:30:00,23.6,20.3,30.37,SE,129,0.0,0.0,87,0.00,,,0.00,0,Wunderground v.1.15,2013-01-07 11:30:00,
2013-01-07 05:35:00,23.6,20.0,30.37,SE,129,0.0,0.0,86,0.00,,,0.00,0,Wunderground v.1.15,2013-01-07 11:35:00,
2013-01-07 05:40:00,23.4,19.8,30.37,SE,129,0.0,0.0,86,0.00,,,0.00,0,Wunderground v.1.15,2013-01-07 11:40:00,
2013-01-07 05:50:00,23.5,19.9,30.37,SE,129,0.0,0.0,86,0.00,,,0.00,0,Wunderground v.1.15,2013-01-07 11:50:00,
2013-01-07 06:00:00,24.3,20.4,30.37,ESE,117,1.0,2.0,85,0.00,,,0.00,0,Wunderground v.1.15,2013-01-07 12:00:00,
2013-01-07 06:05:00,24.5,20.4,30.36,ESE,114,1.0,2.0,84,0.00,,,0.00,0,Wunderground v.1.15,2013-01-07 12:05:00,
2013-01-07 06:10:00,24.3,20.2,30.36,East,92,1.0,1.0,84,0.00,,,0.00,0,Wunderground v.1.15,2013-01-07 12:10:00,
2013-01-07 06:20:00,24.2,20.1,30.36,East,80,1.0,1.0,84,0.00,,,0.00,0,Wunderground v.1.15,2013-01-07 12:20:00,
2013-01-07 06:30:00,24.2,20.1,30.37,ENE,77,2.0,2.0,84,0.00,,,0.00,0,Wunderground v.1.15,2013-01-07 12:30:00,
2013-01-07 06:35:00,24.3,19.9,30.36,East,79,2.0,2.0,83,0.00,,,0.00,0,Wunderground v.1.15,2013-01-07 12:35:00,
2013-01-07 06:41:00,24.4,20.0,30.37,East,79,2.0,2.0,83,0.00,,,0.00,0,Wunderground v.1.15,2013-01-07 12:41:00,
2013-01-07 06:50:00,24.4,20.0,30.37,East,88,2.0,2.0,83,0.00,,,0.00,0,Wunderground v.1.15,2013-01-07 12:50:00,
2013-01-07 07:00:00,24.4,20.0,30.37,East,88,2.0,2.0,83,0.00,,,0.00,0,Wunderground v.1.15,2013-01-07 13:00:00,
2013-01-07 07:05:00,24.4,20.0,30.37,East,88,2.0,3.0,83,0.00,,,0.00,0,Wunderground v.1.15,2013-01-07 13:05:00,
2013-01-07 07:15:00,24.3,19.9,30.37,East,88,2.0,3.0,83,0.00,,,0.00,0,Wunderground v.1.15,2013-01-07 13:15:00,
2013-01-07 07:25:00,24.2,19.8,30.38,East,88,2.0,2.0,83,0.00,,,0.00,7,Wunderground v.1.15,2013-01-07 13:25:00,
2013-01-07 07:30:00,24.2,19.8,30.38,East,88,2.0,3.0,83,0.00,,,0.00,11,Wunderground v.1.15,2013-01-07 13:30:00,
2013-01-07 07:40:00,24.3,19.9,30.38,East,88,1.0,1.0,83,0.00,,,0.00,14,Wunderground v.1.15,2013-01-07 13:40:00,
2013-01-07 07:50:00,24.8,20.4,30.38,East,88,0.0,0.0,83,0.00,,,0.00,21,Wunderground v.1.15,2013-01-07 13:50:00,
2013-01-07 07:55:00,24.9,20.2,30.38,East,88,0.0,0.0,82,0.00,,,0.00,30,Wunderground v.1.15,2013-01-07 13:55:00,
2013-01-07 08:05:00,25.3,20.6,30.38,East,101,1.0,1.0,82,0.00,,,0.00,35,Wunderground v.1.15,2013-01-07 14:05:00,
2013-01-07 08:10:00,25.6,20.9,30.38,East,101,1.0,1.0,82,0.00,,,0.00,54,Wunderground v.1.15,2013-01-07 14:10:00,
2013-01-07 08:15:00,25.7,21.0,30.38,ESE,121,2.0,3.0,82,0.00,,,0.00,56,Wunderground v.1.15,2013-01-07 14:15:00,
2013-01-07 08:20:00,25.9,20.9,30.38,ESE,114,2.0,2.0,81,0.00,,,0.00,81,Wunderground v.1.15,2013-01-07 14:20:00,
2013-01-07 08:25:00,25.9,20.9,30.38,East,101,2.0,2.0,81,0.00,,,0.00,118,Wunderground v.1.15,2013-01-07 14:25:00,
2013-01-07 08:30:00,26.3,21.0,30.38,ESE,104,2.0,2.0,80,0.00,,,0.00,130,Wunderground v.1.15,2013-01-07 14:30:00,
2013-01-07 08:35:00,26.5,21.2,30.38,ESE,111,1.0,2.0,80,0.00,,,0.00,137,Wunderground v.1.15,2013-01-07 14:35:00,
2013-01-07 08:40:00,27.0,21.7,30.38,ESE,121,1.0,1.0,80,0.00,,,0.00,135,Wunderground v.1.15,2013-01-07 14:40:00,
2013-01-07 08:50:00,27.6,21.9,30.38,ESE,111,2.0,3.0,79,0.00,,,0.00,125,Wunderground v.1.15,2013-01-07 14:50:00,
2013-01-07 08:55:00,27.8,21.8,30.38,ESE,122,2.0,3.0,78,0.00,,,0.00,134,Wunderground v.1.15,2013-01-07 14:55:00,
2013-01-07 09:05:00,28.9,22.6,30.38,ESE,121,3.0,4.0,77,0.00,,,0.00,79,Wunderground v.1.15,2013-01-07 15:05:00,
2013-01-07 09:10:00,29.7,23.7,30.38,WSW,237,3.0,3.0,78,0.00,,,0.00,79,Wunderground v.1.15,2013-01-07 15:10:00,
2013-01-07 09:15:00,30.2,24.2,30.38,SSE,150,2.0,3.0,78,0.00,,,0.00,79,Wunderground v.1.15,2013-01-07 15:15:00,
2013-01-07 09:20:00,30.8,24.7,30.38,SSW,207,3.0,4.0,78,0.00,,,0.00,79,Wunderground v.1.15,2013-01-07 15:20:00,
2013-01-07 09:25:00,31.3,24.6,30.38,SSW,210,4.0,4.0,76,0.00,,,0.00,79,Wunderground v.1.15,2013-01-07 15:25:00,
2013-01-07 09:30:00,32.1,25.1,30.38,SW,223,4.0,9.0,75,0.00,,,0.00,79,Wunderground v.1.15,2013-01-07 15:30:00,
2013-01-07 09:35:00,32.5,25.1,30.38,SW,214,6.0,9.0,74,0.00,,,0.00,79,Wunderground v.1.15,2013-01-07 15:35:00,
2013-01-07 09:40:00,32.9,25.2,30.38,SSW,198,8.0,8.0,73,0.00,,,0.00,79,Wunderground v.1.15,2013-01-07 15:40:00,
2013-01-07 09:50:00,33.5,25.1,30.37,SSW,202,7.0,9.0,71,0.00,,,0.00,79,Wunderground v.1.15,2013-01-07 15:50:00,
2013-01-07 09:55:00,33.9,25.1,30.37,SW,224,7.0,9.0,70,0.00,,,0.00,79,Wunderground v.1.15,2013-01-07 15:55:00,
2013-01-07 10:00:00,34.3,25.5,30.37,SSW,198,6.0,6.0,70,0.00,,,0.00,79,Wunderground v.1.15,2013-01-07 16:00:00,
2013-01-07 10:05:00,34.6,25.8,30.37,SW,214,6.0,7.0,70,0.00,,,0.00,79,Wunderground v.1.15,2013-01-07 16:05:00,
2013-01-07 10:10:00,35.1,25.6,30.37,SW,234,7.0,8.0,68,0.00,,,0.00,79,Wunderground v.1.15,2013-01-07 16:10:00,
2013-01-07 10:15:00,35.3,26.1,30.37,SSW,206,7.0,8.0,69,0.00,,,0.00,79,Wunderground v.1.15,2013-01-07 16:15:00,
2013-01-07 10:20:00,35.9,26.7,30.37,SSW,211,7.0,7.0,69,0.00,,,0.00,79,Wunderground v.1.15,2013-01-07 16:20:00,
2013-01-07 10:25:00,36.2,26.3,30.37,SSW,211,7.0,7.0,67,0.00,,,0.00,79,Wunderground v.1.15,2013-01-07 16:25:00,
2013-01-07 10:35:00,36.1,25.8,30.37,SW,217,7.0,8.0,66,0.00,,,0.00,79,Wunderground v.1.15,2013-01-07 16:35:00,
2013-01-07 10:40:00,36.2,25.9,30.36,SW,215,7.0,7.0,66,0.00,,,0.00,79,Wunderground v.1.15,2013-01-07 16:40:00,
2013-01-07 10:50:00,36.8,26.1,30.36,SW,228,6.0,7.0,65,0.00,,,0.00,79,Wunderground v.1.15,2013-01-07 16:50:00,
2013-01-07 10:55:00,37.7,27.0,30.36,SW,218,5.0,7.0,65,0.00,,,0.00,79,Wunderground v.1.15,2013-01-07 16:55:00,
2013-01-07 11:05:00,38.6,26.7,30.35,SSW,209,5.0,6.0,62,0.00,,,0.00,79,Wunderground v.1.15,2013-01-07 17:05:00,
2013-01-07 11:15:00,39.1,27.2,30.34,SW,227,5.0,6.0,62,0.00,,,0.00,79,Wunderground v.1.15,2013-01-07 17:15:00,
2013-01-07 11:25:00,39.3,26.6,30.33,South,172,6.0,7.0,60,0.00,,,0.00,79,Wunderground v.1.15,2013-01-07 17:25:00,
2013-01-07 11:30:00,39.5,27.2,30.33,South,190,7.0,7.0,61,0.00,,,0.00,79,Wunderground v.1.15,2013-01-07 17:30:00,
2013-01-07 11:35:00,39.6,26.8,30.32,SSW,203,6.0,7.0,60,0.00,,,0.00,79,Wunderground v.1.15,2013-01-07 17:35:00,
2013-01-07 11:40:00,40.4,27.6,30.32,South,179,6.0,6.0,60,0.00,,,0.00,79,Wunderground v.1.15,2013-01-07 17:40:00,
2013-01-07 11:45:00,40.9,27.2,30.32,SW,214,5.0,6.0,58,0.00,,,0.00,79,Wunderground v.1.15,2013-01-07 17:45:00,
2013-01-07 11:50:00,40.9,26.8,30.31,SW,214,6.0,6.0,57,0.00,,,0.00,79,Wunderground v.1.15,2013-01-07 17:50:00,
2013-01-07 12:00:00,41.5,27.4,30.30,SSW,202,6.0,6.0,57,0.00,,,0.00,79,Wunderground v.1.15,2013-01-07 18:00:00,
2013-01-07 12:10:00,41.6,27.9,30.29,SSW,208,7.0,7.0,58,0.00,,,0.00,79,Wunderground v.1.15,2013-01-07 18:10:00,
2013-01-07 12:20:00,41.5,27.0,30.27,SSW,208,8.0,8.0,56,0.00,,,0.00,79,Wunderground v.1.15,2013-01-07 18:20:00,
2013-01-07 12:25:00,41.9,28.2,30.26,SSW,200,8.0,8.0,58,0.00,,,0.00,79,Wunderground v.1.15,2013-01-07 18:25:00,
2013-01-07 12:30:00,42.4,28.2,30.26,SSW,202,7.0,11.0,57,0.00,,,0.00,79,Wunderground v.1.15,2013-01-07 18:30:00,
2013-01-07 12:35:00,42.7,28.5,30.26,SW,226,6.0,11.0,57,0.00,,,0.00,79,Wunderground v.1.15,2013-01-07 18:35:00,
2013-01-07 12:40:00,43.1,28.0,30.25,SW,214,6.0,6.0,55,0.00,,,0.00,79,Wunderground v.1.15,2013-01-07 18:40:00,
2013-01-07 12:50:00,42.6,26.6,30.25,SE,126,8.0,10.0,53,0.00,,,0.00,499,Wunderground v.1.15,2013-01-07 18:50:00,
2013-01-07 12:55:00,42.4,26.0,30.25,ESE,109,9.0,10.0,52,0.00,,,0.00,497,Wunderground v.1.15,2013-01-07 18:55:00,
2013-01-07 13:00:00,42.3,26.4,30.25,ESE,118,10.0,12.0,53,0.00,,,0.00,494,Wunderground v.1.15,2013-01-07 19:00:00,
2013-01-07 13:05:00,43.0,26.6,30.25,ESE,113,9.0,12.0,52,0.00,,,0.00,497,Wunderground v.1.15,2013-01-07 19:05:00,
2013-01-07 13:15:00,43.4,26.9,30.24,SE,126,6.0,6.0,52,0.00,,,0.00,490,Wunderground v.1.15,2013-01-07 19:15:00,
2013-01-07 13:25:00,43.9,26.9,30.24,SE,134,7.0,7.0,51,0.00,,,0.00,469,Wunderground v.1.15,2013-01-07 19:25:00,
2013-01-07 13:30:00,44.2,26.2,30.23,ESE,110,7.0,7.0,49,0.00,,,0.00,457,Wunderground v.1.15,2013-01-07 19:30:00,
2013-01-07 13:35:00,44.3,27.3,30.23,East,101,6.0,7.0,51,0.00,,,0.00,450,Wunderground v.1.15,2013-01-07 19:35:00,
2013-01-07 13:40:00,44.8,27.3,30.23,ESE,116,6.0,7.0,50,0.00,,,0.00,457,Wunderground v.1.15,2013-01-07 19:40:00,
2013-01-07 13:50:00,44.9,27.4,30.23,ESE,116,7.0,7.0,50,0.00,,,0.00,403,Wunderground v.1.15,2013-01-07 19:50:00,
2013-01-07 13:55:00,45.2,27.2,30.23,ESE,109,6.0,7.0,49,0.00,,,0.00,396,Wunderground v.1.15,2013-01-07 19:55:00,
2013-01-07 14:00:00,45.4,26.8,30.23,ESE,108,5.0,10.0,48,0.00,,,0.00,397,Wunderground v.1.15,2013-01-07 20:00:00,
2013-01-07 14:10:00,45.9,27.3,30.23,ESE,118,6.0,6.0,48,0.00,,,0.00,390,Wunderground v.1.15,2013-01-07 20:10:00,
2013-01-07 14:15:00,45.8,26.7,30.23,East,100,5.0,8.0,47,0.00,,,0.00,424,Wunderground v.1.15,2013-01-07 20:15:00,
2013-01-07 14:20:00,45.6,26.5,30.23,ESE,103,6.0,6.0,47,0.00,,,0.00,360,Wunderground v.1.15,2013-01-07 20:20:00,
2013-01-07 14:25:00,46.2,27.6,30.23,ESE,108,5.0,6.0,48,0.00,,,0.00,388,Wunderground v.1.15,2013-01-07 20:25:00,
2013-01-07 14:30:00,46.9,28.2,30.23,SE,146,3.0,4.0,48,0.00,,,0.00,374,Wunderground v.1.15,2013-01-07 20:30:00,
2013-01-07 14:35:00,46.6,26.9,30.22,ESE,111,3.0,4.0,46,0.00,,,0.00,364,Wunderground v.1.15,2013-01-07 20:35:00,
2013-01-07 14:45:00,47.1,27.4,30.22,SE,134,5.0,7.0,46,0.00,,,0.00,338,Wunderground v.1.15,2013-01-07 20:45:00,
2013-01-07 14:50:00,46.7,26.5,30.22,ESE,109,6.0,8.0,45,0.00,,,0.00,327,Wunderground v.1.15,2013-01-07 20:50:00,
2013-01-07 15:00:00,47.1,26.8,30.21,SE,125,6.0,6.0,45,0.00,,,0.00,302,Wunderground v.1.15,2013-01-07 21:00:00,
2013-01-07 15:05:00,47.1,26.8,30.20,ESE,105,6.0,6.0,45,0.00,,,0.00,290,Wunderground v.1.15,2013-01-07 21:05:00,
2013-01-07 15:10:00,46.9,26.6,30.21,ESE,119,6.0,6.0,45,0.00,,,0.00,274,Wunderground v.1.15,2013-01-07 21:10:00,
2013-01-07 15:20:00,46.8,26.0,30.20,ESE,119,7.0,7.0,44,0.00,,,0.00,246,Wunderground v.1.15,2013-01-07 21:20:00,
2013-01-07 15:30:00,47.0,26.2,30.20,ESE,105,6.0,7.0,44,0.00,,,0.00,156,Wunderground v.1.15,2013-01-07 21:30:00,
2013-01-07 15:40:00,46.8,26.0,30.21,ESE,104,6.0,6.0,44,0.00,,,0.00,70,Wunderground v.1.15,2013-01-07 21:40:00,
2013-01-07 15:45:00,46.7,25.9,30.21,SE,132,5.0,6.0,44,0.00,,,0.00,54,Wunderground v.1.15,2013-01-07 21:45:00,
2013-01-07 15:55:00,46.5,25.7,30.20,ESE,104,5.0,5.0,44,0.00,,,0.00,51,Wunderground v.1.15,2013-01-07 21:55:00,
2013-01-07 16:00:00,46.4,25.6,30.20,SE,134,6.0,6.0,44,0.00,,,0.00,54,Wunderground v.1.15,2013-01-07 22:00:00,
2013-01-07 16:10:00,46.2,25.5,30.20,ESE,116,5.0,5.0,44,0.00,,,0.00,49,Wunderground v.1.15,2013-01-07 22:10:00,
2013-01-07 16:20:00,46.0,25.3,30.20,ESE,113,5.0,5.0,44,0.00,,,0.00,46,Wunderground v.1.15,2013-01-07 22:20:00,
2013-01-07 16:25:00,45.9,25.2,30.20,ESE,123,5.0,5.0,44,0.00,,,0.00,44,Wunderground v.1.15,2013-01-07 22:25:00,
2013-01-07 16:35:00,45.8,24.5,30.19,ESE,119,5.0,8.0,43,0.00,,,0.00,23,Wunderground v.1.15,2013-01-07 22:35:00,
2013-01-07 16:40:00,45.6,24.4,30.19,ESE,115,6.0,8.0,43,0.00,,,0.00,16,Wunderground v.1.15,2013-01-07 22:40:00,
2013-01-07 16:45:00,45.4,24.7,30.18,SE,130,7.0,8.0,44,0.00,,,0.00,11,Wunderground v.1.15,2013-01-07 22:45:00,
2013-01-07 16:55:00,45.1,24.5,30.18,ESE,109,5.0,7.0,44,0.00,,,0.00,5,Wunderground v.1.15,2013-01-07 22:55:00,
2013-01-07 17:00:00,45.0,24.4,30.19,ESE,119,5.0,5.0,44,0.00,,,0.00,0,Wunderground v.1.15,2013-01-07 23:00:00,
2013-01-07 17:10:00,44.9,24.3,30.19,ESE,113,5.0,5.0,44,0.00,,,0.00,0,Wunderground v.1.15,2013-01-07 23:10:00,
2013-01-07 17:20:00,44.5,23.9,30.19,SE,126,4.0,4.0,44,0.00,,,0.00,0,Wunderground v.1.15,2013-01-07 23:20:00,
2013-01-07 17:25:00,44.4,23.8,30.19,ESE,118,4.0,4.0,44,0.00,,,0.00,0,Wunderground v.1.15,2013-01-07 23:25:00,
2013-01-07 17:35:00,43.0,26.1,30.19,East,96,3.0,3.0,51,0.00,,,0.00,0,Wunderground v.1.15,2013-01-07 23:35:00,
2013-01-07 17:45:00,41.9,26.4,30.19,East,94,4.0,5.0,54,0.00,,,0.00,0,Wunderground v.1.15,2013-01-07 23:45:00,
2013-01-07 17:55:00,41.8,26.8,30.19,ESE,106,4.0,5.0,55,0.00,,,0.00,0,Wunderground v.1.15,2013-01-07 23:55:00,
2013-01-07 18:00:00,41.7,26.7,30.19,East,101,5.0,7.0,55,0.00,,,0.00,0,Wunderground v.1.15,2013-01-08 00:00:00,
2013-01-07 18:05:00,41.6,26.6,30.18,East,101,5.0,7.0,55,0.00,,,0.00,0,Wunderground v.1.15,2013-01-08 00:05:00,
2013-01-07 18:15:00,41.5,27.0,30.18,East,101,5.0,6.0,56,0.00,,,0.00,0,Wunderground v.1.15,2013-01-08 00:15:00,
2013-01-07 18:20:00,41.2,27.1,30.18,East,100,5.0,5.0,57,0.00,,,0.00,0,Wunderground v.1.15,2013-01-08 00:20:00,
2013-01-07 18:25:00,40.9,27.2,30.18,ESE,111,5.0,5.0,58,0.00,,,0.00,0,Wunderground v.1.15,2013-01-08 00:25:00,
2013-01-07 18:35:00,40.7,27.1,30.18,ESE,113,4.0,5.0,58,0.00,,,0.00,0,Wunderground v.1.15,2013-01-08 00:35:00,
2013-01-07 18:40:00,40.6,27.0,30.17,ESE,114,4.0,5.0,58,0.00,,,0.00,0,Wunderground v.1.15,2013-01-08 00:40:00,
2013-01-07 18:45:00,40.5,26.9,30.17,ESE,108,4.0,5.0,58,0.00,,,0.00,0,Wunderground v.1.15,2013-01-08 00:45:00,
2013-01-07 18:55:00,40.1,26.9,30.17,ESE,115,3.0,4.0,59,0.00,,,0.00,0,Wunderground v.1.15,2013-01-08 00:55:00,
2013-01-07 19:00:00,40.0,26.8,30.17,ESE,109,3.0,3.0,59,0.00,,,0.00,0,Wunderground v.1.15,2013-01-08 01:00:00,
2013-01-07 19:10:00,39.8,27.0,30.17,ESE,111,3.0,3.0,60,0.00,,,0.00,0,Wunderground v.1.15,2013-01-08 01:10:00,
2013-01-07 19:15:00,39.7,26.9,30.17,ESE,103,3.0,3.0,60,0.00,,,0.00,0,Wunderground v.1.15,2013-01-08 01:15:00,
2013-01-07 19:20:00,39.7,26.9,30.17,East,98,3.0,3.0,60,0.00,,,0.00,0,Wunderground v.1.15,2013-01-08 01:20:00,
2013-01-07 19:25:00,39.6,26.4,30.17,ESE,120,3.0,3.0,59,0.00,,,0.00,0,Wunderground v.1.15,2013-01-08 01:25:00,
2013-01-07 19:35:00,39.7,26.5,30.17,ESE,105,4.0,4.0,59,0.00,,,0.00,0,Wunderground v.1.15,2013-01-08 01:35:00,
2013-01-07 19:40:00,39.7,26.5,30.17,ESE,107,4.0,4.0,59,0.00,,,0.00,0,Wunderground v.1.15,2013-01-08 01:40:00,
2013-01-07 19:50:00,39.4,26.2,30.17,ESE,110,4.0,4.0,59,0.00,,,0.00,0,Wunderground v.1.15,2013-01-08 01:50:00,
2013-01-07 19:55:00,39.4,26.2,30.16,ESE,109,3.0,4.0,59,0.00,,,0.00,0,Wunderground v.1.15,2013-01-08 01:55:00,
2013-01-07 20:00:00,39.3,26.2,30.16,ESE,104,4.0,4.0,59,0.00,,,0.00,0,Wunderground v.1.15,2013-01-08 02:00:00,
2013-01-07 20:05:00,39.1,26.0,30.16,ESE,113,4.0,4.0,59,0.00,,,0.00,0,Wunderground v.1.15,2013-01-08 02:05:00,
2013-01-07 20:15:00,39.1,26.0,30.16,ESE,105,4.0,4.0,59,0.00,,,0.00,0,Wunderground v.1.15,2013-01-08 02:15:00,
2013-01-07 20:25:00,38.9,25.8,30.17,ESE,111,3.0,4.0,59,0.00,,,0.00,0,Wunderground v.1.15,2013-01-08 02:25:00,
2013-01-07 20:35:00,38.7,25.6,30.17,ESE,117,3.0,4.0,59,0.00,,,0.00,0,Wunderground v.1.15,2013-01-08 02:35:00,
2013-01-07 20:40:00,38.5,25.4,30.16,SE,127,4.0,4.0,59,0.00,,,0.00,0,Wunderground v.1.15,2013-01-08 02:40:00,
2013-01-07 20:45:00,38.6,25.1,30.16,ESE,111,5.0,5.0,58,0.00,,,0.00,0,Wunderground v.1.15,2013-01-08 02:45:00,
2013-01-07 20:50:00,38.6,25.1,30.17,ESE,119,5.0,5.0,58,0.00,,,0.00,0,Wunderground v.1.15,2013-01-08 02:50:00,
2013-01-07 21:00:00,38.3,24.8,30.17,SE,127,3.0,4.0,58,0.00,,,0.00,0,Wunderground v.1.15,2013-01-08 03:00:00,
2013-01-07 21:05:00,38.2,24.7,30.17,ESE,123,3.0,4.0,58,0.00,,,0.00,0,Wunderground v.1.15,2013-01-08 03:05:00,
2013-01-07 21:10:00,38.2,25.1,30.17,ESE,117,3.0,3.0,59,0.00,,,0.00,0,Wunderground v.1.15,2013-01-08 03:10:00,
2013-01-07 21:15:00,38.0,24.9,30.17,ESE,119,3.0,3.0,59,0.00,,,0.00,0,Wunderground v.1.15,2013-01-08 03:15:00,
2013-01-07 21:25:00,37.9,24.8,30.18,ESE,121,2.0,3.0,59,0.00,,,0.00,0,Wunderground v.1.15,2013-01-08 03:25:00,
2013-01-07 21:35:00,37.8,24.7,30.17,SE,133,4.0,4.0,59,0.00,,,0.00,0,Wunderground v.1.15,2013-01-08 03:35:00,
2013-01-07 21:45:00,37.7,24.6,30.17,SE,126,4.0,4.0,59,0.00,,,0.00,0,Wunderground v.1.15,2013-01-08 03:45:00,
2013-01-07 21:50:00,37.6,25.0,30.17,SE,127,4.0,4.0,60,0.00,,,0.00,0,Wunderground v.1.15,2013-01-08 03:50:00,
2013-01-07 21:55:00,37.4,24.8,30.17,ESE,118,5.0,5.0,60,0.00,,,0.00,0,Wunderground v.1.15,2013-01-08 03:55:00,
2013-01-07 22:00:00,37.3,24.7,30.17,ESE,122,5.0,8.0,60,0.00,,,0.00,0,Wunderground v.1.15,2013-01-08 04:00:00,
2013-01-07 22:10:00,37.0,24.8,30.17,SE,126,5.0,7.0,61,0.00,,,0.00,0,Wunderground v.1.15,2013-01-08 04:10:00,
2013-01-07 22:15:00,36.8,24.6,30.16,ESE,123,6.0,7.0,61,0.00,,,0.00,0,Wunderground v.1.15,2013-01-08 04:15:00,
2013-01-07 22:20:00,36.8,25.0,30.17,SE,126,6.0,7.0,62,0.00,,,0.00,0,Wunderground v.1.15,2013-01-08 04:20:00,
2013-01-07 22:25:00,36.6,24.8,30.16,ESE,117,5.0,8.0,62,0.00,,,0.00,0,Wunderground v.1.15,2013-01-08 04:25:00,
2013-01-07 22:35:00,36.5,24.7,30.16,SE,139,5.0,5.0,62,0.00,,,0.00,0,Wunderground v.1.15,2013-01-08 04:35:00,
2013-01-07 22:45:00,36.5,24.7,30.16,SSE,156,4.0,5.0,62,0.00,,,0.00,0,Wunderground v.1.15,2013-01-08 04:45:00,
2013-01-07 22:50:00,36.5,24.7,30.15,SE,138,5.0,5.0,62,0.00,,,0.00,0,Wunderground v.1.15,2013-01-08 04:50:00,
2013-01-07 22:55:00,36.4,24.6,30.16,SSE,153,5.0,5.0,62,0.00,,,0.00,0,Wunderground v.1.15,2013-01-08 04:55:00,
2013-01-07 23:00:00,36.3,24.5,30.16,SE,146,4.0,4.0,62,0.00,,,0.00,0,Wunderground v.1.15,2013-01-08 05:00:00,
2013-01-07 23:05:00,36.4,24.6,30.15,SSE,163,4.0,4.0,62,0.00,,,0.00,0,Wunderground v.1.15,2013-01-08 05:05:00,
2013-01-07 23:15:00,36.3,24.5,30.15,SSE,158,4.0,4.0,62,0.00,,,0.00,0,Wunderground v.1.15,2013-01-08 05:15:00,
2013-01-07 23:20:00,36.2,24.4,30.15,SE,132,4.0,4.0,62,0.00,,,0.00,0,Wunderground v.1.15,2013-01-08 05:20:00,
2013-01-07 23:30:00,36.3,24.5,30.15,South,171,5.0,5.0,62,0.00,,,0.00,0,Wunderground v.1.15,2013-01-08 05:30:00,
2013-01-07 23:40:00,36.2,24.4,30.15,SSE,149,4.0,4.0,62,0.00,,,0.00,0,Wunderground v.1.15,2013-01-08 05:40:00,
2013-01-07 23:50:00,35.9,24.5,30.15,SE,144,5.0,5.0,63,0.00,,,0.00,0,Wunderground v.1.15,2013-01-08 05:50:00,